| time (UTC) | temp C | wind direction | speed KPH | gust KPH | rain 1hr cm | rain 24hr cm | rain mn cm | humidity % | barometer mb |
| 20260906130044 | 18 | 123 | 0.0 | 3.2 | 0.00 | 0.00 | 0.00 | 94 | 1017.1 |
| 20260906124531 | 18 | 134 | 1.6 | 8.0 | 0.00 | 0.00 | 0.00 | 94 | 1017.1 |
| 20260906123039 | 18 | 148 | 0.0 | 6.4 | 0.00 | 0.00 | 0.00 | 94 | 1016.9 |
| 20260906121607 | 18 | 136 | 0.0 | 4.8 | 0.00 | 0.00 | 0.00 | 94 | 1016.7 |
| 20260906120114 | 18 | 92 | 0.0 | 3.2 | 0.00 | 0.00 | 0.00 | 94 | 1016.7 |
| 20260906114559 | 18 | 141 | 0.0 | 1.6 | 0.00 | 0.00 | 0.00 | 94 | 1016.5 |
| 20260906113018 | 18 | 129 | 0.0 | 4.8 | 0.00 | 0.00 | 0.00 | 94 | 1016.0 |
| 20260906111520 | 18 | 78 | 0.0 | 6.4 | 0.00 | 0.00 | 0.00 | 94 | 1016.0 |
| 20260906110049 | 18 | 111 | 0.0 | 1.6 | 0.00 | 0.00 | 0.00 | 94 | 1016.0 |
| 20260906104550 | 18 | 118 | 0.0 | 4.8 | 0.00 | 0.00 | 0.00 | 94 | 1015.9 |
| 20260906103052 | 17 | 153 | 0.0 | 1.6 | 0.00 | 0.00 | 0.00 | 94 | 1015.9 |
| 20260906101547 | 17 | 73 | 0.0 | 4.8 | 0.00 | 0.00 | 0.00 | 94 | 1015.6 |
| 20260906100057 | 17 | 127 | 0.0 | 4.8 | 0.00 | 0.00 | 0.00 | 94 | 1015.4 |
| 20260906094550 | 17 | 92 | 0.0 | 1.6 | 0.00 | 0.00 | 0.00 | 94 | 1015.5 |
| 20260906093044 | 17 | 115 | 0.0 | 1.6 | 0.00 | 0.00 | 0.00 | 94 | 1015.3 |
| 20260906091543 | 17 | 101 | 0.0 | 1.6 | 0.00 | 0.00 | 0.00 | 94 | 1015.5 |
| 20260906090042 | 18 | 82 | 0.0 | 1.6 | 0.00 | 0.00 | 0.00 | 94 | 1015.2 |
| 20260906084542 | 18 | 102 | 0.0 | 0.0 | 0.00 | 0.00 | 0.00 | 94 | 1015.3 |
| 20260906083040 | 18 | 100 | 0.0 | 1.6 | 0.00 | 0.00 | 0.00 | 94 | 1015.2 |
| 20260906081540 | 18 | 92 | 0.0 | 1.6 | 0.00 | 0.00 | 0.00 | 93 | 1015.2 |
| 20260906080038 | 18 | 96 | 0.0 | 1.6 | 0.00 | 0.00 | 0.00 | 93 | 1015.2 |
| 20260906074538 | 18 | 104 | 0.0 | 1.6 | 0.00 | 0.00 | 0.00 | 93 | 1015.3 |
| 20260906073034 | 19 | 97 | 0.0 | 0.0 | 0.00 | 0.00 | 0.00 | 93 | 1015.4 |
| 20260906071532 | 19 | 92 | 0.0 | 1.6 | 0.00 | 0.00 | 0.00 | 93 | 1015.4 |
| 20260906070030 | 20 | 80 | 0.0 | 1.6 | 0.00 | 0.00 | 0.00 | 92 | 1015.5 |
| 20260906064529 | 20 | 80 | 0.0 | 1.6 | 0.00 | 0.00 | 0.00 | 92 | 1015.5 |
| 20260906063031 | 20 | 115 | 0.0 | 1.6 | 0.00 | 0.00 | 0.00 | 92 | 1015.6 |
| 20260906061527 | 20 | 107 | 0.0 | 0.0 | 0.00 | 0.00 | 0.00 | 92 | 1015.7 |
| 20260906060025 | 20 | 107 | 0.0 | 1.6 | 0.00 | 0.00 | 0.00 | 92 | 1015.5 |
| 20260906054542 | 20 | 128 | 0.0 | 3.2 | 0.00 | 0.00 | 0.00 | 92 | 1015.3 |
| 20260906053021 | 20 | 101 | 1.6 | 8.0 | 0.00 | 0.00 | 0.00 | 91 | 1015.3 |
| 20260906051529 | 20 | 125 | 0.0 | 6.4 | 0.00 | 0.00 | 0.00 | 91 | 1015.2 |
| 20260906050027 | 20 | 111 | 0.0 | 1.6 | 0.00 | 0.00 | 0.00 | 91 | 1015.2 |
| 20260906044517 | 20 | 121 | 0.0 | 3.2 | 0.00 | 0.00 | 0.00 | 91 | 1015.2 |
| 20260906043014 | 20 | 118 | 0.0 | 6.4 | 0.00 | 0.00 | 0.00 | 91 | 1014.9 |
| 20260906041512 | 20 | 165 | 0.0 | 6.4 | 0.00 | 0.00 | 0.00 | 90 | 1014.7 |
| 20260906040010 | 21 | 128 | 0.0 | 1.6 | 0.00 | 0.00 | 0.00 | 89 | 1014.6 |
| 20260906034509 | 21 | 120 | 0.0 | 1.6 | 0.00 | 0.00 | 0.00 | 88 | 1014.3 |
| 20260906033007 | 21 | 129 | 0.0 | 4.8 | 0.00 | 0.00 | 0.00 | 88 | 1014.2 |
| 20260906031516 | 21 | 128 | 0.0 | 4.8 | 0.00 | 0.00 | 0.00 | 89 | 1014.1 |
| 20260906030010 | 21 | 133 | 0.0 | 3.2 | 0.00 | 0.00 | 0.00 | 89 | 1014.0 |
| 20260906024515 | 21 | 103 | 0.0 | 6.4 | 0.00 | 0.00 | 0.00 | 89 | 1014.0 |
| 20260906023001 | 21 | 113 | 0.0 | 4.8 | 0.00 | 0.00 | 0.00 | 90 | 1013.7 |
| 20260906021502 | 21 | 118 | 0.0 | 8.0 | 0.00 | 0.00 | 0.00 | 91 | 1013.7 |
| 20260906020002 | 21 | 154 | 0.0 | 8.0 | 0.00 | 0.00 | 0.00 | 90 | 1013.6 |
| 20260906014600 | 21 | 90 | 3.2 | 9.7 | 0.00 | 0.00 | 0.00 | 89 | 1013.6 |
| 20260906013104 | 21 | 106 | 0.0 | 9.7 | 0.00 | 0.00 | 0.00 | 88 | 1013.8 |
| 20260906011557 | 21 | 80 | 0.0 | 9.7 | 0.00 | 0.00 | 0.00 | 87 | 1013.7 |
| 20260906010055 | 22 | 122 | 0.0 | 12.9 | 0.00 | 0.00 | 0.00 | 86 | 1013.6 |
| 20260906004553 | 22 | 121 | 0.0 | 6.4 | 0.00 | 0.00 | 0.00 | 86 | 1013.2 |
| 20260906003052 | 23 | 134 | 0.0 | 12.9 | 0.00 | 0.00 | 0.00 | 85 | 1013.2 |
| 20260906001551 | 24 | 89 | 0.0 | 4.8 | 0.00 | 0.00 | 0.00 | 85 | 1013.1 |
| 20260906000059 | 24 | 127 | 0.0 | 11.3 | 0.00 | 0.00 | 0.00 | 84 | 1013.0 |
| 20260905234554 | 25 | 101 | 0.0 | 4.8 | 0.00 | 0.00 | 0.00 | 81 | 1013.0 |
| 20260905233053 | 27 | 121 | 0.0 | 1.6 | 0.00 | 0.00 | 0.00 | 73 | 1012.8 |
| 20260905231549 | 27 | 134 | 0.0 | 1.6 | 0.00 | 0.00 | 0.00 | 75 | 1012.5 |
| 20260905230048 | 27 | 134 | 0.0 | 1.6 | 0.00 | 0.00 | 0.00 | 74 | 1012.3 |
| 20260905224548 | 27 | 99 | 0.0 | 1.6 | 0.00 | 0.00 | 0.00 | 72 | 1012.3 |
| 20260905223047 | 28 | 100 | 0.0 | 3.2 | 0.00 | 0.00 | 0.00 | 72 | 1012.3 |
| 20260905221546 | 28 | 122 | 0.0 | 1.6 | 0.00 | 0.00 | 0.00 | 74 | 1012.2 |
| 20260905220045 | 27 | 84 | 0.0 | 1.6 | 0.00 | 0.00 | 0.00 | 76 | 1012.2 |
| 20260905214545 | 28 | 108 | 0.0 | 3.2 | 0.00 | 0.00 | 0.00 | 72 | 1012.2 |
| 20260905213046 | 27 | 83 | 0.0 | 4.8 | 0.00 | 0.00 | 0.00 | 74 | 1012.2 |
| 20260905211600 | 27 | 117 | 0.0 | 9.7 | 0.00 | 0.00 | 0.00 | 76 | 1012.0 |
| 20260905210053 | 27 | 54 | 0.0 | 1.6 | 0.00 | 0.00 | 0.00 | 76 | 1012.5 |
| 20260905204543 | 26 | 105 | 0.0 | 4.8 | 0.00 | 0.00 | 0.00 | 79 | 1012.6 |
| 20260905203040 | 25 | 96 | 0.0 | 4.8 | 0.00 | 0.00 | 0.00 | 82 | 1012.7 |
| 20260905201549 | 25 | 118 | 0.0 | 1.6 | 0.00 | 0.00 | 0.00 | 83 | 1012.6 |
| 20260905200040 | 25 | 333 | 0.0 | 4.8 | 0.00 | 0.00 | 0.00 | 83 | 1012.8 |
| 20260905194539 | 25 | 100 | 0.0 | 1.6 | 0.00 | 0.00 | 0.00 | 83 | 1012.8 |
| 20260905193039 | 25 | 119 | 1.6 | 8.0 | 0.00 | 0.00 | 0.00 | 82 | 1012.8 |
| 20260905191538 | 26 | 93 | 0.0 | 8.0 | 0.00 | 0.00 | 0.00 | 81 | 1012.7 |
| 20260905190038 | 26 | 147 | 0.0 | 9.7 | 0.00 | 0.00 | 0.00 | 82 | 1012.7 |
| 20260905184537 | 26 | 107 | 1.6 | 11.3 | 0.00 | 0.00 | 0.00 | 81 | 1012.8 |
| 20260905183037 | 26 | 135 | 0.0 | 9.7 | 0.00 | 0.00 | 0.00 | 80 | 1012.8 |
| 20260905181537 | 26 | 70 | 0.0 | 11.3 | 0.00 | 0.00 | 0.00 | 80 | 1013.0 |
| 20260905180035 | 27 | 102 | 0.0 | 6.4 | 0.00 | 0.00 | 0.00 | 80 | 1012.8 |
| 20260905174536 | 27 | 92 | 1.6 | 11.3 | 0.00 | 0.00 | 0.00 | 77 | 1012.7 |
| 20260905173052 | 27 | 110 | 0.0 | 11.3 | 0.00 | 0.00 | 0.00 | 78 | 1012.7 |
| 20260905171536 | 27 | 333 | 0.0 | 8.0 | 0.00 | 0.00 | 0.00 | 80 | 1012.8 |
| 20260905170032 | 27 | 93 | 0.0 | 6.4 | 0.00 | 0.00 | 0.00 | 81 | 1012.8 |
| 20260905164529 | 26 | 75 | 0.0 | 4.8 | 0.00 | 0.00 | 0.00 | 83 | 1012.9 |
| 20260905163026 | 26 | 116 | 0.0 | 4.8 | 0.00 | 0.00 | 0.00 | 85 | 1013.0 |
| 20260905161510 | 25 | 110 | 0.0 | 4.8 | 0.00 | 0.00 | 0.00 | 87 | 1013.0 |
| 20260905160043 | 25 | 122 | 0.0 | 1.6 | 0.00 | 0.00 | 0.00 | 87 | 1012.9 |
| 20260905154505 | 23 | 132 | 0.0 | 4.8 | 0.00 | 0.00 | 0.00 | 90 | 1013.0 |
| 20260905153040 | 23 | 113 | 0.0 | 6.4 | 0.00 | 0.00 | 0.00 | 90 | 1013.0 |
| 20260905151511 | 23 | 125 | 0.0 | 8.0 | 0.00 | 0.00 | 0.00 | 91 | 1012.8 |
| 20260905150049 | 23 | 127 | 0.0 | 8.0 | 0.00 | 0.00 | 0.00 | 91 | 1012.5 |
| 20260905144548 | 23 | 75 | 0.0 | 6.4 | 0.00 | 0.00 | 0.00 | 91 | 1012.3 |
| 20260905143050 | 22 | 115 | 0.0 | 6.4 | 0.00 | 0.00 | 0.00 | 92 | 1012.0 |
| 20260905141547 | 22 | 125 | 0.0 | 4.8 | 0.00 | 0.00 | 0.00 | 92 | 1012.1 |
| 20260905140047 | 22 | 136 | 0.0 | 8.0 | 0.00 | 0.00 | 0.00 | 92 | 1012.2 |
| 20260905134556 | 22 | 134 | 1.6 | 9.7 | 0.00 | 0.00 | 0.00 | 92 | 1012.1 |
| 20260905133053 | 23 | 51 | 0.0 | 4.8 | 0.00 | 0.00 | 0.00 | 91 | 1012.0 |
| 20260905131543 | 23 | 119 | 0.0 | 4.8 | 0.00 | 0.00 | 0.00 | 91 | 1011.9 |